This demonstration page uses our WeatherBlox Daily Observations layout. Learn more.

Left ArrowRight Arrow

Hourly Observations for May 7, 2018

Temp ( °F °C ) Dew Point ( °F °C ) Humidity (%) Winds ( mph kmh ) Pressure ( in mb ) Visibility ( mi km ) Precip ( " mm )
12:15 am 00:15 Clear 54 12.1 42 5.5 64 64 N N/A 30.15 1021 10 16 N/A
12:35 am 00:35 Clear 53 11.4 42 5.4 67 67 N N/A 30.15 1021 10 16 N/A
12:55 am 00:55 Clear 52 11.1 42 5.3 68 68 N N/A 30.15 1021 10 16 N/A
1:15 am 01:15 Clear 53 11.9 42 5.7 66 66 ENE 3 6 30.15 1021 10 16 N/A
1:35 am 01:35 Clear 53 11.8 42 5.5 66 66 E 5 7 30.15 1021 10 16 N/A
1:55 am 01:55 Clear 56 13.1 44 6.5 65 65 E 7 11 30.15 1021 10 16 N/A
2:15 am 02:15 Clear 53 11.9 43 6.3 69 69 E 8 13 30.15 1021 10 16 N/A
2:35 am 02:35 Clear 53 11.5 43 6.2 70 70 ESE 9 15 30.15 1021 10 16 N/A
2:55 am 02:55 Clear 51 10.8 43 6.2 73 73 ESE 9 15 30.15 1021 10 16 N/A
3:15 am 03:15 Clear 53 11.5 44 6.7 73 73 ESE 9 15 30.15 1021 10 16 N/A
3:35 am 03:35 Clear 54 12 44 6.8 71 71 ESE 9 15 30.15 1021 10 16 N/A
3:55 am 03:55 Clear 54 12.3 44 6.8 69 69 SE 8 13 30.15 1021 10 16 N/A
4:15 am 04:15 Clear 53 11.8 44 6.6 71 71 SE 8 13 30.15 1021 10 16 N/A
4:35 am 04:35 Clear 53 11.4 44 6.6 73 73 S 6 9 30.18 1022 10 16 N/A
4:55 am 04:55 Clear 54 12 45 7 72 72 SSE 6 9 30.18 1022 10 16 N/A
5:15 am 05:15 Clear 52 11 44 6.8 76 76 SE 8 13 30.18 1022 10 16 N/A
5:35 am 05:35 Clear 50 10.2 44 6.5 78 78 SE 8 13 30.18 1022 10 16 N/A
5:55 am 05:55 Clear 50 9.9 44 6.4 79 79 SE 8 13 30.18 1022 10 16 N/A
6:15 am 06:15 Clear 49 9.4 44 6.7 83 83 SE 9 15 30.18 1022 10 16 N/A
6:35 am 06:35 Sunny 51 10.3 44 6.9 80 80 SE 8 13 30.18 1022 10 16 N/A
6:55 am 06:55 Sunny 51 10.7 46 7.5 81 81 SE 8 13 30.15 1021 10 16 N/A
7:15 am 07:15 Sunny 54 12.1 47 8.4 78 78 SE 8 13 30.15 1021 10 16 N/A
7:35 am 07:35 Sunny 56 13.6 48 8.8 73 73 SSE 8 13 30.18 1022 10 16 N/A
7:55 am 07:55 Sunny 59 14.8 48 9.1 69 69 SSE 13 20 30.15 1021 10 16 N/A
8:15 am 08:15 Sunny 61 16 49 9.4 65 65 SE 15 24 30.15 1021 10 16 N/A
8:35 am 08:35 Sunny 63 17.1 49 9.5 61 61 SE 14 22 30.15 1021 10 16 N/A
8:55 am 08:55 Sunny 65 18.1 49 9.4 57 57 SE 18 30 30.12 1020 10 16 N/A
9:15 am 09:15 Sunny 66 18.9 49 9.6 55 55 SE 18 30 30.12 1020 10 16 N/A
9:35 am 09:35 Sunny 68 20.2 49 9.6 51 51 SE 21 33 30.09 1019 10 16 N/A
9:55 am 09:55 undefined N/A N/A N/A undefined N/A N/A N/A N/A
10:15 am 10:15 Sunny 71 21.4 50 9.8 48 48 SE 18 30 30.06 1018 N/A N/A
10:35 am 10:35 Sunny 72 22.2 50 9.9 46 46 SE 22 35 30.03 1017 N/A N/A
10:55 am 10:55 Sunny 73 22.9 50 10 44 44 SSE 17 28 30.03 1017 10 16 N/A
11:15 am 11:15 Sunny 75 23.7 50 9.9 42 42 SE 20 31 30.03 1017 10 16 N/A
11:35 am 11:35 Sunny 76 24.2 49 9.7 40 40 SE 20 31 30.03 1017 10 16 N/A
11:55 am 11:55 Sunny 77 24.8 48 9.1 37 37 SSE 20 31 30.00 1016 10 16 N/A
12:15 pm 12:15 Sunny 77 25.1 49 9.2 37 37 SSE 20 31 30.00 1016 10 16 N/A
12:35 pm 12:35 Sunny 78 25.4 49 9.4 36 36 SSE 17 28 30.00 1016 10 16 N/A
12:55 pm 12:55 Sunny 78 25.7 49 9.2 35 35 SSE 17 28 30.00 1016 10 16 N/A
1:15 pm 13:15 Sunny 79 26.2 49 9.5 35 35 SSE 21 33 30.00 1016 10 16 N/A
1:35 pm 13:35 Sunny 80 26.7 49 9.4 34 34 SSE 20 31 29.97 1015 10 16 N/A
1:55 pm 13:55 Sunny 80 26.9 49 9.3 33 33 SSE 20 31 29.97 1015 10 16 N/A
2:15 pm 14:15 Sunny 81 27.3 49 9.3 32 32 SSE 21 33 29.94 1014 10 16 N/A
2:35 pm 14:35 Sunny 81 27.3 47 8.4 30 30 SSE 20 31 29.94 1014 10 16 N/A
2:55 pm 14:55 Sunny 82 28 48 8.9 30 30 SSE 20 31 29.91 1013 10 16 N/A
3:15 pm 15:15 Sunny 83 28.3 48 8.8 29 29 SE 22 35 29.88 1012 10 16 N/A
3:35 pm 15:35 Sunny 83 28.2 48 9.1 30 30 SSE 21 33 29.88 1012 10 16 N/A
3:55 pm 15:55 Sunny 83 28.4 49 9.3 30 30 SE 20 31 29.88 1012 10 16 N/A
4:15 pm 16:15 Sunny 83 28.5 48 9.1 30 30 SSE 20 31 29.88 1012 10 16 N/A
4:35 pm 16:35 Sunny 83 28.4 48 8.9 29 29 SE 20 31 29.85 1011 10 16 N/A
4:55 pm 16:55 Sunny 83 28.6 49 9.2 30 30 S 18 30 29.85 1011 10 16 N/A
5:15 pm 17:15 Sunny 84 28.7 48 8.9 29 29 SSE 22 35 29.85 1011 10 16 N/A
5:35 pm 17:35 Sunny 83 28.5 48 9 29 29 SSE 21 33 29.85 1011 10 16 N/A
5:55 pm 17:55 Sunny 83 28.3 49 9.2 30 30 SSE 25 41 29.85 1011 10 16 N/A
6:15 pm 18:15 Sunny 82 28 49 9.4 31 31 SE 23 37 29.85 1011 10 16 N/A
6:35 pm 18:35 Sunny 81 27.3 49 9.5 33 33 SSE 21 33 29.83 1010 10 16 N/A
6:55 pm 18:55 Sunny 81 27.1 49 9.6 33 33 SSE 21 33 29.83 1010 10 16 N/A
7:15 pm 19:15 Sunny 80 26.8 49 9.7 34 34 SSE 18 30 29.83 1010 10 16 N/A
7:35 pm 19:35 Sunny 79 26.1 49 9.7 36 36 SE 21 33 29.85 1011 10 16 N/A
7:55 pm 19:55 Sunny 78 25.4 50 9.8 37 37 SE 17 28 29.85 1011 10 16 N/A
8:15 pm 20:15 Sunny 76 24.7 49 9.7 39 39 SE 16 26 29.85 1011 10 16 N/A
8:35 pm 20:35 Sunny 75 23.8 49 9.5 40 40 SE 14 22 29.85 1011 10 16 N/A
8:55 pm 20:55 Clear 73 22.9 49 9.7 43 43 SE 12 19 29.85 1011 10 16 N/A
9:15 pm 21:15 Clear 72 22.1 50 10 46 46 SE 14 22 29.85 1011 10 16 N/A
9:35 pm 21:35 Clear 71 21.6 50 9.8 47 47 SE 13 20 29.88 1012 10 16 N/A
9:55 pm 21:55 Clear 70 21.1 50 10 49 49 SE 14 22 29.88 1012 10 16 N/A
10:15 pm 22:15 Clear 70 21.1 50 10 49 49 SE 15 24 29.85 1011 10 16 N/A
10:35 pm 22:35 Clear 70 21.1 50 10 49 49 SE 16 26 29.85 1011 10 16 N/A
10:55 pm 22:55 Clear 70 21 50 10 50 50 SSE 14 22 29.85 1011 10 16 N/A
11:15 pm 23:15 Clear 69 20.5 50 10 51 51 SSE 13 20 29.85 1011 10 16 N/A
11:35 pm 23:35 Clear 68 20.1 50 10 52 52 SSE 14 22 29.85 1011 10 16 N/A
11:55 pm 23:55 Clear 68 20.2 50 9.9 52 52 SSE 14 22 29.83 1010 10 16 N/A

Powered by AerisWeather